Location: Byszew
(52.1813°N, 19.2693°E)
Time: 21:28:45
(UTC+00:00)

ARIANE 5 R/B - Pass Details

Date: 03 March 2021
Orbit: 621 x 655 km, 98.2° (Epoch: 15 April)

Event Time Altitude Azimuth Distance (km) Brightness Sun altitude
Exits shadow 18:44:09 23° 37° (NE) 1,382 4.1 -21.7°
Drops below altitude 10° 18:46:46 10° 5° (N) 2,077 5.4 -22.1°
Sets 18:49:16 0° 353° (N) 2,995 6.4 -22.4°
